RH
27 42 100 100 100 99 100 100 100 100 100 100 100 100 94 94 93 70 57 53 38 21 18 16 16 24 39 50 53 66 83 81 98 99 96 100 100 79 77 92 93 98 100
39 64 96 100 90 100 100 100 100 100 100 100 100 100 97 88 69 55 34 25 15 12 10 9 9 9 9 10 14 25 38 55 70 96 96 100 100 83 69 72 84 97 100
57 92 70 94 100 100 100 100 100 100 98 100 100 99 92 76 49 29 15 12 10 9 8 8 8 8 8 8 8 8 10 14 24 33 58 67 71 80 85 71 73 77 80
66 83 100 83 100 100 100 99 100 100 100 100 100 82 67 48 30 13 10 11 8 8 7 6 6 7 8 8 9 8 9 10 14 16 20 28 32 38 43 48 48 47 43
91 100 100 93 99 92 100 100 100 100 100 98 92 60 37 26 13 10 11 9 8 8 7 7 8 9 9 14 16 14 13 12 14 15 16 19 18 23 21 24 23 43 72
96 99 79 99 94 100 100 100 100 93 96 78 57 40 27 12 9 11 10 8 8 8 8 8 9 11 16 14 17 32 36 39 37 33 32 28 36 48 48 44 59 83 100
99 82 100 96 99 96 92 100 98 77 73 51 40 28 13 10 10 11 8 7 7 8 9 10 11 16 22 29 25 52 59 61 63 63 58 62 72 72 66 74 82 99 100
96 100 98 100 100 100 100 97 77 64 46 35 29 15 11 11 12 8 8 7 8 8 9 11 15 16 19 42 55 43 74 78 91 94 89 93 99 95 93 97 98 100 100
100 99 100 76 100 100 100 92 69 46 31 27 16 12 11 11 10 7 7 7 8 9 10 14 20 26 31 58 71 80 68 76 94 95 95 92 88 97 99 100 98 86 95
87 100 100 97 96 100 98 75 50 33 27 17 12 11 10 11 8 7 8 8 8 9 11 18 27 38 40 58 82 87 92 94 89 68 59 70 81 91 86 98 92 94 94
74 100 100 97 100 100 77 52 32 26 20 13 12 10 10 9 8 8 7 8 8 9 12 16 32 43 53 66 80 92 100 97 96 100 100 100 100 100 94 93 93 99 92
88 100 98 100 91 71 57 42 28 18 13 13 11 11 11 8 8 8 7 8 8 10 13 18 28 46 49 66 79 95 98 100 100 100 98 99 100 100 100 100 100 100 100
78 90 94 91 77 55 50 33 23 14 14 14 12 12 11 8 8 8 8 8 9 11 14 18 24 44 60 64 68 93 100 100 100 100 100 93 98 94 100 100 100 100 100
77 81 83 68 62 47 38 24 14 14 15 14 12 13 11 9 9 10 9 9 12 15 16 21 26 40 66 75 80 84 97 100 99 100 98 99 100 100 100 99 94 96 87
71 79 71 55 49 35 24 15 14 15 14 14 14 14 12 10 10 12 12 13 16 21 23 25 31 36 51 63 72 74 78 90 92 91 92 99 97 92 91 84 77 71 75
64 72 62 45 31 23 16 14 15 16 15 15 15 15 12 11 11 12 16 14 21 27 28 31 32 38 54 64 72 83 80 81 83 84 85 93 93 84 85 91 92 95 98
62 57 48 30 20 16 14 15 16 15 15 15 16 16 13 12 13 16 17 18 23 32 40 42 45 40 56 76 78 82 84 88 96 96 96 96 97 99 99 99 100 100 100
49 40 25 21 16 13 15 17 17 15 15 15 16 16 14 12 14 20 22 25 28 36 41 50 64 58 58 76 77 77 81 85 88 93 94 93 88 87 94 93 93 93 93
28 21 20 18 13 15 18 18 16 15 15 16 17 18 16 15 16 21 28 32 37 42 49 54 60 71 79 83 90 88 85 86 86 85 92 97 100 100 98 96 97 100 100
19 20 18 14 15 18 18 18 16 15 16 17 18 19 18 18 18 20 26 34 45 51 54 67 69 72 75 75 82 90 93 95 98 100 99 99 100 100 100 99 100 100 100
20 16 15 18 20 18 16 17 16 16 18 18 19 20 19 18 20 24 23 31 34 45 61 59 66 74 82 85 89 84 77 79 87 91 89 91 100 100 100 100 100 100 100
15 17 20 21 21 17 16 16 15 16 17 18 19 21 22 19 20 22 25 30 35 36 38 44 56 60 62 63 68 80 91 92 88 83 83 90 99 100 100 98 99 100 100
18 21 21 20 18 17 17 15 15 16 17 18 18 19 20 20 18 18 18 20 23 30 32 38 40 43 50 56 65 67 71 75 84 90 89 86 88 92 93 94 98 100 99
20 20 20 18 17 16 16 15 16 16 16 18 19 19 18 19 20 19 19 20 20 21 23 28 31 34 40 41 46 56 62 71 72 74 79 84 87 88 91 90 88 91 94
19 17 16 16 16 16 15 15 15 16 17 18 18 19 19 19 20 20 18 18 17 18 20 22 23 24 27 30 32 37 40 48 60 65 68 74 80 84 87 87 86 86 86
15 14 14 14 15 15 16 16 16 16 16 18 18 19 20 19 19 20 21 20 19 19 20 21 22 23 22 22 24 28 32 38 45 50 55 62 70 74 74 76 80 81 80
Wind_Speed
101 95 87 94 102 102 104 100 109 105 104 105 107 110 104 103 100 95 91 90 90 84 79 73 70 73 79 84 87 90 94 95 100 104 105 107 109 103 94 94 92 93 96
98 93 95 102 110 111 106 113 109 115 107 106 110 112 103 99 97 95 91 87 81 77 74 71 69 71 73 75 79 83 90 93 94 91 100 98 104 104 94 96 96 99 100
100 102 102 112 106 111 119 120 122 122 108 108 113 102 100 99 95 93 85 80 73 68 64 61 61 61 63 64 64 64 69 76 83 87 94 96 97 97 97 96 95 91 93
114 108 105 118 119 119 128 126 121 119 111 109 104 98 96 96 93 86 78 73 67 60 55 53 51 51 52 51 53 54 56 60 65 70 74 80 81 82 84 85 83 82 82
105 112 118 120 125 125 128 131 127 124 108 104 99 98 95 92 87 79 71 68 60 55 49 46 43 43 41 39 40 42 45 48 52 56 58 61 62 66 68 66 63 54 53
121 126 130 126 126 127 130 122 131 108 106 99 98 95 94 87 78 70 66 60 52 48 44 40 38 37 38 35 34 34 37 37 39 41 44 47 46 47 49 49 46 44 44
139 129 123 132 130 130 133 131 120 105 100 99 96 94 88 81 71 66 59 52 44 42 39 35 35 36 35 34 30 28 31 31 32 33 33 30 32 35 37 43 44 44 44
134 132 136 129 129 131 131 126 107 101 100 94 91 87 80 74 67 60 54 46 40 38 35 33 35 36 36 35 33 29 33 33 35 31 26 22 23 24 25 26 29 36 32
142 123 124 132 130 129 129 108 103 102 96 90 85 79 72 67 61 53 47 42 36 35 34 31 34 36 37 35 37 36 31 32 36 37 32 30 29 26 27 30 36 39 39
145 131 137 124 129 127 112 104 101 98 91 86 78 71 65 60 54 46 41 41 36 34 33 31 35 37 38 38 40 39 36 31 32 31 31 27 26 29 31 31 34 36 38
146 131 132 131 125 121 107 102 97 89 84 77 71 65 58 53 46 41 39 38 36 32 33 32 35 39 42 41 41 41 42 42 38 37 37 34 35 37 38 40 39 41 42
137 128 128 126 114 102 102 100 92 83 76 71 65 59 54 48 41 39 35 34 33 30 28 32 34 39 41 42 42 46 47 47 47 49 47 45 44 46 43 43 43 44 45
128 115 113 106 104 100 100 93 86 76 70 66 60 54 51 45 40 36 32 31 30 25 24 27 33 37 42 42 46 45 48 50 52 51 53 55 56 54 55 56 55 58 58
118 107 104 102 101 98 95 85 76 69 65 60 55 52 49 44 36 35 31 28 26 24 24 27 29 37 40 43 46 49 52 53 55 54 50 50 52 59 61 64 65 64 64
105 104 102 101 100 92 84 76 68 65 59 55 51 48 45 42 35 31 30 28 26 23 25 28 29 31 40 43 45 49 49 51 54 55 52 51 54 54 54 56 59 59 55
105 103 103 100 93 82 75 68 62 60 56 52 48 46 42 40 35 30 30 29 28 24 26 28 30 31 34 41 45 45 47 50 52 52 50 48 48 48 47 47 46 42 43
104 104 99 95 81 74 68 64 58 56 51 49 46 44 40 39 34 32 30 30 28 26 26 29 30 32 35 37 40 45 46 47 46 46 47 45 45 44 45 44 42 42 44
103 98 93 83 75 68 63 60 56 53 48 45 43 41 41 38 34 32 31 30 29 29 28 31 30 32 34 39 39 41 42 44 45 45 45 45 45 43 41 41 41 42 41
97 91 82 75 69 64 61 55 53 49 46 43 40 39 40 39 36 32 33 32 31 31 33 32 33 33 35 37 39 41 40 41 43 45 46 45 44 43 44 45 45 44 45
90 81 74 71 66 61 57 52 50 46 44 42 40 37 38 40 40 38 35 34 33 34 34 36 37 39 40 40 44 46 47 48 49 49 47 44 45 46 48 48 48 49 52
79 74 69 67 64 59 53 47 46 43 42 40 38 38 38 39 40 42 41 39 38 38 39 40 41 43 44 46 48 48 51 53 53 54 53 50 48 49 47 50 51 53 55
72 69 67 63 59 57 50 45 42 41 40 38 37 36 38 39 40 42 42 43 43 42 42 43 44 46 48 50 50 51 53 55 56 58 58 56 55 54 54 54 55 56 56
67 65 62 58 55 50 47 45 42 39 38 38 38 36 36 37 37 38 40 41 42 43 44 46 46 46 47 49 50 51 53 53 54 56 57 58 59 59 58 58 59 60 61
64 62 58 56 51 48 45 43 42 40 38 37 37 37 37 36 36 37 38 40 41 42 43 45 45 47 48 50 48 49 49 51 53 55 57 59 59 59 60 62 64 64 65
61 57 54 51 48 47 46 44 40 39 39 38 37 36 36 37 37 37 37 37 37 39 40 42 44 45 45 46 46 46 47 49 52 54 56 59 60 61 63 64 64 66 66
56 54 50 48 47 46 45 45 44 41 39 38 38 38 38 37 37 37 37 37 36 37 37 39 41 43 44 44 44 44 45 47 50 51 54 55 57 58 60 63 66 67 67
Wind_Direction
323 321 316 318 318 322 321 320 322 318 316 317 316 316 314 313 312 311 311 311 307 300 292 284 274 263 256 252 250 248 249 249 250 252 253 255 257 258 255 257 258 259 261
319 320 316 318 321 323 322 321 320 321 315 315 315 316 314 312 311 310 311 309 302 296 287 281 275 268 264 260 256 252 250 250 249 249 253 253 255 258 258 258 258 259 259
318 318 318 319 323 323 321 322 322 322 320 315 316 314 313 311 310 310 310 306 299 292 285 278 273 269 266 264 262 258 254 252 252 250 249 250 252 255 257 258 259 258 257
318 314 313 319 318 322 321 322 322 320 315 317 315 313 311 310 310 310 308 303 297 291 285 277 272 268 265 262 260 256 252 250 250 251 251 252 253 255 257 258 258 258 259
314 312 313 315 317 320 321 321 321 318 317 315 313 311 310 310 310 309 308 301 296 289 282 276 271 266 263 257 255 254 252 250 247 248 249 250 251 251 252 254 254 253 249
315 317 315 312 317 317 320 321 320 318 316 313 312 311 310 310 308 308 304 298 292 284 277 272 267 262 257 253 247 245 246 243 244 245 246 247 249 248 246 244 241 232 240
315 317 317 315 316 317 319 321 319 315 314 313 312 311 310 309 309 307 300 294 288 279 274 269 263 255 250 251 244 235 239 241 242 243 248 247 248 250 244 234 228 225 238
314 315 315 315 317 318 320 318 318 316 313 312 311 310 308 307 307 302 296 292 284 275 269 264 259 256 248 244 243 237 233 235 230 235 235 230 236 243 231 228 228 227 237
317 312 313 316 315 317 318 318 316 314 312 312 311 308 306 305 303 298 293 290 281 273 266 258 252 248 244 233 230 239 232 226 225 226 223 224 225 223 227 227 229 234 237
317 311 310 314 315 316 317 315 315 313 313 312 309 307 306 303 300 295 292 285 281 270 263 251 246 242 241 234 230 231 237 228 234 234 235 242 249 246 246 244 246 245 245
313 311 309 313 314 315 315 315 315 313 312 310 308 307 305 303 298 292 286 279 278 268 260 246 240 238 238 234 231 226 231 238 236 232 236 237 242 249 246 246 250 250 252
312 308 311 313 313 315 316 316 314 314 312 309 307 306 305 302 296 289 283 279 275 267 256 246 237 235 236 235 230 231 235 236 241 240 240 240 239 242 244 252 256 254 258
309 312 313 314 313 316 315 314 314 313 310 307 306 305 304 300 293 289 285 277 271 264 255 244 237 232 234 235 236 235 234 239 243 248 251 250 247 251 253 254 256 255 257
310 312 313 314 315 314 313 312 313 310 308 305 304 304 301 297 292 289 284 277 273 264 256 247 237 227 230 233 233 235 237 241 244 244 250 252 253 251 254 255 257 260 261
311 313 313 315 313 312 311 312 310 309 307 304 302 300 298 293 291 283 282 275 269 262 256 249 242 234 229 229 232 236 237 238 241 246 249 254 256 256 257 259 261 264 265
311 312 313 313 310 311 311 310 308 308 304 301 300 298 295 291 287 281 276 270 266 258 247 244 240 237 234 233 234 236 240 242 245 250 250 250 251 255 257 260 262 261 258
310 311 311 309 309 311 309 307 306 305 301 298 297 295 292 287 284 280 273 268 264 257 251 246 244 238 235 234 234 236 240 242 245 247 247 248 251 253 255 256 254 252 252
309 309 307 307 309 309 307 306 304 302 298 295 294 291 288 285 282 277 273 268 262 256 252 241 243 240 237 234 234 237 238 240 241 243 246 248 250 253 253 254 252 253 255
307 306 306 307 307 307 307 303 301 299 296 292 290 289 286 284 281 275 269 267 264 257 253 251 245 241 239 240 241 242 243 243 244 245 249 252 254 254 256 259 260 260 261
304 303 305 305 305 306 304 301 299 296 293 290 287 286 281 280 279 276 270 263 261 259 253 251 251 248 247 244 240 240 240 241 243 245 248 251 253 256 258 259 259 258 259
301 303 303 303 303 302 299 297 295 292 288 286 284 284 282 277 275 274 272 268 263 257 256 252 250 251 251 251 251 251 249 247 245 246 248 248 249 254 257 260 259 259 259
301 302 302 301 299 297 295 296 293 289 285 282 278 277 277 277 274 271 268 266 265 263 260 258 254 251 251 252 250 251 252 253 254 253 253 252 251 253 250 251 254 257 258
300 300 299 297 295 293 293 295 292 288 284 281 279 276 277 278 277 272 270 267 265 262 261 259 259 259 256 255 255 255 253 253 255 256 256 256 255 254 255 254 253 255 257
298 297 295 294 292 292 292 292 290 288 285 281 279 278 277 276 276 272 271 269 267 265 263 262 261 260 259 258 257 256 253 253 255 255 256 256 256 257 257 257 257 257 258
294 293 292 291 291 291 292 290 288 286 285 283 281 279 277 276 276 277 275 272 269 267 265 264 263 261 259 259 259 257 256 255 253 254 255 255 255 257 258 259 260 260 261
291 290 289 290 290 289 288 289 289 287 285 282 281 280 278 277 276 275 275 273 272 270 268 266 264 262 261 261 260 260 259 258 257 256 256 255 255 257 258 259 259 260 262